UTA536 USTR-USSS

Flight info

Callsign UTA536
Flight time N/A
Altitude 32000
Route BEPAR DCT BANAM DCT SOPUS
Aircraft B738/M-SDE2E3FGHIRWXY/LB1

Departure

Time 2026-05-08 10:53
Airport Roshchino International Airport (USTR)

Arrival

Time N/A
Airport Koltsovo Airport (USSS)
Time Latitude Longitude Altitude Speed Heading
2026-05-08 10:30 57.18105 65.34744 326 ft 0 kts 45°
2026-05-08 10:46 57.18098 65.34731 326 ft 2 kts 44°
2026-05-08 10:46 57.18087 65.34712 326 ft 2 kts 44°
2026-05-08 10:46 57.18077 65.34692 327 ft 2 kts 44°
2026-05-08 10:46 57.18070 65.34679 327 ft 2 kts 38°
2026-05-08 10:47 57.18056 65.34669 327 ft 2 kts
2026-05-08 10:47 57.18041 65.34673 327 ft 2 kts 335°
2026-05-08 10:47 57.18033 65.34682 327 ft 0 kts 316°
2026-05-08 10:47 57.18029 65.34692 328 ft 0 kts 314°
2026-05-08 10:49 57.18030 65.34689 327 ft 1 kts 314°
2026-05-08 10:49 57.18044 65.34663 327 ft 5 kts 315°
2026-05-08 10:49 57.18115 65.34533 326 ft 21 kts 314°
2026-05-08 10:49 57.18219 65.34339 323 ft 21 kts 313°
2026-05-08 10:50 57.18323 65.34146 322 ft 21 kts 315°
2026-05-08 10:50 57.18429 65.33950 318 ft 22 kts 315°
2026-05-08 10:50 57.18542 65.33740 314 ft 23 kts 315°
2026-05-08 10:50 57.18614 65.33592 312 ft 7 kts 297°
2026-05-08 10:51 57.18621 65.33516 313 ft 4 kts 263°
2026-05-08 10:51 57.18621 65.33447 314 ft 9 kts 270°
2026-05-08 10:51 57.18604 65.33336 314 ft 8 kts 227°
2026-05-08 10:51 57.18566 65.33259 316 ft 7 kts 223°
2026-05-08 10:52 57.18535 65.33231 318 ft 5 kts 184°
2026-05-08 10:52 57.18447 65.33366 320 ft 44 kts 135°
2026-05-08 10:52 57.18032 65.34141 330 ft 122 kts 134°
2026-05-08 10:52 57.17277 65.35516 592 ft 165 kts 131°
2026-05-08 10:53 57.16535 65.36894 1657 ft 153 kts 130°
2026-05-08 10:53 57.15741 65.38315 2218 ft 168 kts 131°
2026-05-08 10:53 57.14885 65.39857 2773 ft 181 kts 131°
2026-05-08 10:53 57.13897 65.41413 3287 ft 199 kts 148°
2026-05-08 10:54 57.12471 65.41966 3816 ft 223 kts 182°
2026-05-08 10:54 57.10975 65.41065 4412 ft 240 kts 208°
2026-05-08 10:54 57.09719 65.38964 5022 ft 256 kts 236°
2026-05-08 10:54 57.09228 65.35785 5662 ft 270 kts 271°
2026-05-08 10:55 57.09828 65.32622 6539 ft 274 kts 305°
2026-05-08 10:55 57.11311 65.30524 7407 ft 279 kts 337°
2026-05-08 10:55 57.13202 65.29915 8238 ft 285 kts 355°
2026-05-08 10:55 57.15171 65.29565 9073 ft 285 kts 343°
2026-05-08 10:56 57.16914 65.27990 9918 ft 281 kts 317°
2026-05-08 10:56 57.18171 65.25311 10557 ft 287 kts 300°
2026-05-08 10:56 57.19008 65.21871 11049 ft 300 kts 286°
2026-05-08 10:56 57.19439 65.18015 11547 ft 314 kts 274°
2026-05-08 10:57 57.19191 65.14068 12280 ft 321 kts 253°
2026-05-08 10:57 57.18219 65.10292 13097 ft 327 kts 242°
2026-05-08 10:57 57.16241 65.02797 14677 ft 333 kts 260°
2026-05-08 10:58 57.16025 64.98592 15538 ft 334 kts 269°
2026-05-08 10:58 57.15991 64.94319 16251 ft 341 kts 270°
2026-05-08 10:58 57.15964 64.89939 17044 ft 344 kts 269°
2026-05-08 10:58 57.15892 64.85554 17791 ft 349 kts 268°
2026-05-08 10:59 57.15773 64.81074 18525 ft 353 kts 267°
2026-05-08 10:59 57.15628 64.76663 19180 ft 358 kts 267°
2026-05-08 10:59 57.15464 64.72044 19942 ft 360 kts 267°
2026-05-08 10:59 57.15297 64.67413 20547 ft 365 kts 267°
2026-05-08 11:00 57.15131 64.62802 21274 ft 367 kts 267°
2026-05-08 11:00 57.14963 64.58096 21854 ft 372 kts 267°
2026-05-08 11:00 57.14794 64.53329 22484 ft 376 kts 267°
2026-05-08 11:00 57.14627 64.48502 23151 ft 378 kts 267°
2026-05-08 11:01 57.14466 64.43654 23706 ft 382 kts 267°
2026-05-08 11:01 57.14315 64.38834 24344 ft 384 kts 267°